SCP
0 0 0 0 0 0 1 1 1 1 1 2 2 2 1 1 1 1 1 1 2 2 3 4 4 6 7 7 6 5 4 3 3 2 2 2 2 2 2 2 2 2 3 3
0 0 0 0 0 0 0 0 0 1 1 2 2 1 1 1 1 1 1 2 2 2 2 3 4 6 8 9 8 6 4 3 3 2 2 2 2 2 2 2 2 3 3 3
0 0 0 0 0 0 0 0 0 1 1 2 2 1 1 1 2 2 2 2 2 2 2 2 4 7 10 11 10 7 5 4 3 3 3 3 3 3 2 3 3 3 4 4
1 1 0 0 0 0 0 0 0 1 1 1 1 1 1 2 3 3 2 2 2 2 2 2 4 7 11 13 11 9 6 5 4 4 4 4 3 3 3 3 3 4 4 4
1 1 0 0 0 1 1 1 1 1 1 1 1 1 2 3 4 4 3 3 3 3 2 3 4 6 9 11 10 8 6 5 5 5 5 5 4 3 3 3 3 4 4 5
1 0 0 0 0 0 0 1 1 1 1 1 1 1 2 3 4 4 4 4 4 4 3 4 4 5 6 7 8 7 6 6 6 6 6 5 4 3 3 3 3 4 5 5
0 0 0 0 0 0 1 1 1 1 1 1 1 2 2 2 3 3 4 4 4 4 5 5 5 5 5 5 6 7 6 6 6 6 5 4 4 3 3 3 4 4 5 5
1 1 1 1 1 1 1 1 1 1 1 1 2 2 2 2 2 2 3 3 3 4 6 6 5 5 4 5 6 6 6 6 6 5 5 4 4 4 4 4 5 5 5 4
1 1 1 1 1 1 1 1 1 1 1 1 2 2 3 2 2 2 2 3 4 5 6 6 5 4 4 4 5 6 7 6 5 4 4 4 4 4 4 4 4 4 4 4
1 1 1 1 1 1 1 1 1 1 2 1 2 2 3 3 3 3 5 6 8 8 8 6 4 4 4 4 5 6 6 5 4 3 3 4 3 3 3 3 4 4 3 3
1 1 1 1 1 1 1 1 1 2 2 1 2 3 3 3 4 6 8 10 10 9 8 6 4 4 4 4 5 5 4 3 3 3 3 3 3 3 2 2 3 3 3 3
1 1 1 1 1 1 1 1 2 2 2 2 2 3 3 4 4 6 7 8 8 7 6 5 5 5 5 5 6 5 4 3 3 3 3 3 3 2 2 1 1 2 2 2
1 1 1 1 1 1 1 2 2 2 2 2 3 3 3 3 4 4 4 4 5 5 6 6 7 7 6 7 7 7 5 4 3 3 3 3 3 2 2 1 1 0 0 0
1 1 1 1 1 1 1 1 2 2 2 2 2 2 3 3 3 3 3 4 4 5 6 8 8 8 8 8 7 6 5 3 3 3 3 3 3 3 2 2 1 1 0 0
2 2 2 1 1 2 2 2 2 2 2 2 2 3 3 3 3 3 3 4 4 5 6 7 8 8 8 7 6 5 3 2 2 2 3 3 3 3 3 2 1 1 1 0
2 2 1 2 2 2 3 3 3 2 2 2 3 3 3 3 3 3 3 3 3 3 4 5 6 7 7 6 6 5 3 2 2 2 2 3 3 3 3 2 1 1 1 1
1 1 1 2 3 3 3 3 3 3 3 3 3 3 3 4 4 4 3 2 2 2 3 4 4 4 5 5 6 5 4 3 3 3 3 3 3 3 2 2 1 1 1 0
1 1 2 2 3 3 4 3 3 3 3 3 4 4 4 4 5 4 3 2 1 2 2 2 3 3 4 5 6 6 5 4 4 3 3 3 3 2 2 1 1 1 1 1
2 2 2 2 2 2 3 3 3 3 3 3 3 4 4 5 5 4 3 2 1 1 2 2 2 2 3 3 4 5 5 4 4 3 2 2 2 2 2 1 1 1 1 1
2 1 1 1 1 1 1 2 2 2 2 2 3 4 5 6 6 4 3 1 1 2 2 2 1 1 2 2 2 2 2 2 2 2 2 2 1 1 1 1 1 1 1 1
1 1 1 1 1 1 1 1 1 1 1 2 3 4 6 6 6 4 2 1 1 2 2 2 1 1 1 1 1 1 1 1 1 1 1 1 1 1 1 1 1 1 1 0
1 1 1 1 1 1 1 1 1 1 1 2 2 4 5 5 4 3 2 2 2 2 2 1 1 1 1 1 1 1 1 1 1 1 1 2 2 1 1 1 1 1 0 0
1 1 1 1 1 1 1 1 1 1 1 2 2 3 4 4 3 2 2 1 1 2 2 1 1 1 1 1 1 1 1 1 1 1 2 2 2 1 1 1 1 1 1 1
1 1 1 1 1 1 1 1 1 1 1 2 2 3 3 2 2 1 1 1 1 1 1 1 1 0 1 1 1 1 1 1 1 2 2 2 2 1 1 1 1 1 1 1
1 1 1 1 1 1 1 1 1 1 2 3 3 3 2 2 1 1 1 1 1 1 2 2 1 1 1 2 2 1 1 1 1 2 2 2 2 2 1 1 1 1 1 1
1 1 1 1 1 1 1 1 1 2 3 3 3 2 2 2 1 1 1 1 1 1 3 3 2 1 2 2 2 1 1 1 1 1 2 3 3 2 2 1 1 1 0 0
1 1 1 1 1 1 1 1 1 2 3 3 2 2 2 1 1 1 0 0 1 1 3 3 3 2 2 2 2 1 1 1 1 1 2 3 3 3 2 2 1 1 0 0
Wind_Speed
7 5 5 5 5 6 7 7 8 5 3 1 1 1 2 2 3 3 3 3 3 3 3 3 3 2 2 2 2 2 2 1 1 1 1 1 1 1 1 1 1 1 1 1
8 7 6 7 6 6 6 6 6 6 2 2 1 1 1 2 2 2 2 2 2 3 3 3 3 3 2 2 2 2 2 2 1 1 1 1 1 1 1 0 1 1 1 1
8 7 10 9 6 6 5 4 6 6 3 0 1 1 1 1 2 2 2 2 1 1 2 2 3 3 2 2 2 2 2 2 1 1 1 1 1 1 1 1 0 1 1 1
7 7 11 1 1 3 5 4 4 4 2 1 1 1 1 1 1 1 1 2 1 1 1 2 2 2 2 3 3 3 3 2 2 2 2 2 2 2 2 1 1 1 2 2
7 10 8 4 3 3 5 4 1 3 1 1 1 3 3 2 1 1 1 1 1 1 1 2 2 2 3 3 3 3 3 3 3 3 3 3 3 3 2 2 2 3 3 3
8 10 9 2 3 1 6 6 2 1 1 0 2 5 2 3 2 1 1 1 1 1 0 1 1 2 3 3 3 3 4 4 3 4 4 4 4 3 3 3 3 3 3 3
10 10 5 3 2 4 7 1 3 0 0 1 2 4 3 2 2 1 1 1 1 0 0 0 1 2 3 3 3 3 3 4 4 4 4 4 3 3 3 4 3 4 3 3
8 10 4 4 3 2 3 4 1 0 0 1 1 2 1 1 1 1 1 1 1 1 1 1 1 2 3 4 4 3 3 4 4 4 4 3 2 3 4 4 4 4 4 4
4 2 4 2 2 2 1 1 1 1 1 1 1 1 1 1 1 1 1 1 2 2 2 2 2 2 3 3 4 3 3 3 4 4 4 3 3 4 4 4 4 4 3 3
3 2 1 1 1 1 0 1 1 0 0 0 1 1 1 1 1 1 1 1 2 2 2 3 3 3 4 3 3 3 4 4 3 4 4 3 3 4 4 4 4 4 4 4
5 3 3 2 1 1 0 1 1 0 0 1 1 1 1 1 1 1 1 1 2 2 3 3 3 3 3 3 3 4 4 4 4 4 3 3 3 3 4 3 3 5 5 4
4 2 4 1 1 2 2 2 2 1 1 1 1 1 1 1 1 2 2 2 2 3 4 4 4 4 4 4 4 4 4 3 3 3 3 3 3 2 1 3 2 3 4 5
3 3 4 3 3 3 3 2 2 2 2 2 2 2 2 2 2 2 2 3 3 4 4 4 4 4 4 4 4 4 4 4 3 3 3 3 3 3 3 3 4 5 4 4
3 3 3 3 3 3 3 2 2 2 2 2 2 2 2 2 2 2 3 4 4 4 4 4 4 4 4 3 3 4 5 3 4 3 3 4 3 4 3 3 3 2 3 5
3 4 4 4 3 2 2 2 2 2 2 2 2 2 2 2 2 3 3 4 4 4 5 5 4 5 4 4 4 4 5 4 3 3 3 3 3 4 3 3 3 3 2 2
4 4 4 3 3 2 2 3 3 3 2 2 3 3 3 3 3 3 3 3 4 5 5 5 5 5 5 5 4 4 4 4 4 4 4 3 3 3 3 3 3 3 3 2
4 4 3 3 3 3 3 3 3 3 2 2 2 2 2 3 3 4 4 3 4 4 5 5 5 5 5 5 5 5 5 4 5 5 4 4 3 3 3 3 3 3 3 1
3 3 3 3 3 3 3 3 3 3 2 3 3 2 2 3 4 4 4 4 4 4 5 5 5 5 4 4 4 4 4 4 4 3 3 3 3 4 4 4 4 4 3 2
1 1 2 1 2 2 3 3 3 3 3 3 3 3 3 3 4 4 4 4 5 5 4 5 4 5 4 4 4 4 4 4 3 3 3 3 4 4 4 4 4 4 3 3
1 1 1 1 2 2 2 3 3 3 3 3 3 3 3 4 4 4 3 4 4 4 4 4 5 5 5 3 4 4 4 4 4 4 3 4 4 4 4 4 4 3 3 3
2 1 1 1 1 2 2 3 3 3 3 4 4 4 4 4 4 4 4 4 3 4 4 4 4 4 4 3 4 4 4 4 4 3 3 4 4 3 3 3 3 3 2 2
2 2 2 2 2 2 2 3 3 4 4 4 4 4 4 4 4 4 4 3 3 3 4 4 4 3 3 4 4 3 3 4 3 2 2 3 3 3 3 3 3 3 3 3
2 2 3 3 3 3 3 3 3 3 4 4 4 4 4 4 4 4 3 2 3 2 4 4 3 3 4 5 4 4 3 3 3 3 3 3 3 3 3 3 2 2 2 2
2 3 3 3 3 3 4 4 4 3 4 4 4 4 4 4 3 3 3 2 2 3 4 2 2 4 6 4 3 3 3 2 3 3 3 3 2 2 2 2 2 2 2 3
3 3 3 3 4 3 3 4 4 3 4 3 3 3 3 3 3 2 3 3 2 4 4 2 4 5 5 3 3 3 2 2 3 3 3 3 2 2 2 2 2 2 2 2
3 3 3 3 3 3 3 3 3 3 3 2 2 2 2 2 2 2 2 3 3 3 3 2 2 3 3 2 2 2 3 2 2 3 2 2 2 2 2 2 2 2 2 2
3 3 2 3 2 2 2 3 2 2 2 2 2 2 2 2 2 2 3 3 2 2 2 2 2 2 2 2 2 2 2 2 2 2 2 2 2 1 2 2 2 2 2 2
Wind_Direction
257 262 259 250 238 227 243 271 282 290 295 18 86 162 150 158 173 170 170 185 191 187 177 176 173 174 180 183 176 184 197 211 191 207 147 113 80 69 47 2 37 32 333 332
240 236 238 244 245 240 243 261 268 272 294 51 119 140 156 179 206 204 192 197 190 187 186 192 192 192 185 185 190 192 203 209 207 215 157 143 143 129 114 90 1 353 321 321
247 234 239 234 241 243 241 249 267 273 299 6 181 172 172 182 234 247 231 226 208 196 195 204 205 202 210 210 202 204 212 218 217 225 202 191 195 162 179 208 241 271 281 278
254 233 243 242 98 256 249 244 265 290 329 303 300 200 142 119 272 278 271 271 245 226 209 206 204 194 206 212 211 212 216 221 218 229 227 216 210 211 223 237 240 247 256 263
252 242 238 191 183 229 243 239 262 279 303 342 316 221 155 73 347 292 288 306 297 254 210 179 191 196 210 220 214 215 219 223 220 226 232 230 231 234 231 238 245 244 243 252
244 254 253 196 132 227 252 229 128 278 277 238 261 256 93 54 18 4 37 35 5 353 195 164 190 203 221 235 235 238 237 238 234 229 230 238 241 242 241 245 252 258 251 256
243 252 248 84 122 198 239 37 92 82 42 274 291 338 34 38 32 37 34 31 35 354 294 297 230 236 245 256 260 258 251 245 241 234 234 236 241 241 243 246 251 259 256 252
240 249 235 96 182 243 19 47 62 353 351 315 9 23 26 18 26 30 21 12 4 7 352 331 286 259 261 270 277 266 254 247 243 242 249 239 235 243 245 250 245 244 243 252
279 323 61 73 54 51 33 30 46 3 352 356 3 355 345 340 338 340 347 350 339 341 338 332 318 290 282 294 292 273 255 253 252 248 251 251 247 247 242 241 256 262 256 257
249 188 149 130 145 139 62 342 346 4 31 304 305 331 335 332 317 305 312 327 314 321 330 336 332 316 305 302 290 270 260 260 257 252 252 248 258 259 263 264 267 271 272 273
239 234 228 202 240 272 248 247 192 175 328 336 327 294 287 291 288 285 296 317 319 316 322 323 318 311 309 306 289 278 268 264 258 251 252 251 254 272 272 279 301 289 294 291
267 273 276 285 316 281 253 248 235 235 227 282 295 280 268 266 286 284 290 305 308 309 311 317 316 314 313 300 284 275 265 259 258 252 246 253 258 262 251 258 243 246 263 284
305 310 309 308 290 280 266 258 246 244 242 258 270 263 256 261 273 285 289 296 299 301 306 311 314 316 315 304 292 281 276 275 275 274 266 260 257 261 262 233 220 227 225 232
288 288 277 282 291 281 278 270 260 255 255 262 263 260 258 266 281 288 292 297 298 297 295 296 300 304 307 300 287 278 273 265 262 267 270 270 269 273 271 274 272 258 206 197
264 278 286 300 294 286 281 263 255 256 257 261 265 267 266 272 280 288 292 294 294 291 292 294 296 300 302 292 279 276 275 275 271 269 266 264 266 272 277 282 287 288 286 162
271 274 277 282 281 272 264 265 268 271 268 264 270 275 278 283 287 290 285 284 287 291 296 296 296 300 296 286 277 270 263 246 252 262 259 256 259 265 270 272 275 278 281 294
261 266 278 285 286 278 274 280 290 293 289 281 282 286 286 287 285 288 294 296 295 294 295 296 296 297 291 284 279 277 274 252 219 241 255 261 263 267 269 269 269 272 276 284
268 275 269 267 280 289 292 296 296 294 290 296 294 277 269 274 280 291 297 299 297 298 303 304 306 302 294 286 284 285 281 278 265 254 255 261 270 269 269 272 274 274 277 243
265 297 304 290 284 278 281 288 292 296 292 287 288 284 275 271 276 284 286 284 285 288 302 309 309 291 291 296 290 271 280 282 280 275 262 254 252 258 267 272 271 273 277 274
15 352 336 317 307 292 277 277 280 284 290 290 280 276 274 276 278 281 282 281 290 302 305 310 299 293 290 291 283 274 271 270 272 272 269 267 265 264 268 278 282 279 275 271
17 16 9 340 319 294 278 278 276 274 274 274 276 279 283 286 285 283 280 281 300 311 302 287 281 286 286 298 267 271 274 270 269 274 279 275 271 271 273 280 289 290 289 287
350 346 337 331 315 298 288 278 272 269 269 272 276 278 277 277 280 282 283 293 303 319 301 292 291 318 315 291 270 271 271 273 272 269 270 275 281 282 278 277 284 295 297 292
325 328 322 311 305 302 293 281 278 278 278 279 276 276 281 290 289 283 284 296 301 319 294 300 332 331 295 271 272 270 273 279 279 279 279 281 283 282 282 287 292 294 298 301
306 306 310 305 300 286 282 285 286 281 277 271 269 272 273 273 273 278 296 286 277 281 286 310 296 280 270 265 271 275 276 283 285 284 280 275 274 280 285 291 299 312 319 319
307 302 301 296 286 282 283 280 274 272 273 279 281 276 271 274 282 298 304 300 282 263 274 254 231 248 260 275 277 278 278 286 293 296 285 286 293 293 288 285 292 306 318 321
300 295 302 295 297 291 282 275 274 277 275 279 286 291 294 294 290 288 286 288 291 280 283 289 282 259 276 289 288 295 300 288 266 266 279 286 284 284 290 299 294 297 306 314
284 290 285 289 294 299 298 293 289 291 295 293 296 303 301 293 288 295 298 298 302 305 311 310 307 300 302 310 315 319 314 309 316 319 309 298 299 306 315 313 314 322 327 321